Content
SEND FEEDBACK

Daily
Averages
Monthly
Summary
United States of America

FORT BENNING SOUTH, GEORGIA


Home > North America > United States > Georgia
Elevation: 289 feet     Latitude: 32 21N     Longitude: 085 00W

WEATHER
 
SELECT A DAY
Number of Records: 261,016;   Date Range: 1/1/95 - 9/21/14
 
SHARE

PRINT THIS DATA

[ ← Previous Day ]
WEATHER ALMANAC - FEBRUARY 13, 2013
[ Next Day → ]
[ °C ]   °F
Weather ElementAverageHighLow
Temperature51.6 °F57.2 °F (9:48 am)41.4 °F (11:58 pm)
Dewpoint49.5 °F55.4 °F (7:08 am)37.9 °F (11:58 pm)
Humidity92.9 %100 % (12:13 am)73 % (10:58 am)
Barometer29.82 in29.99 in (10:58 pm)29.73 in (4:30 am)
Wind Speed4.6 mph15 mph (12:12 pm)
Wind Gust21.9 mph (12:58 pm)
Weather ElementAverage
Visibility8.8 mi
Wind DirectionSSW (203.7 °)

Weather ElementTotal
Precipitation0.12 in
Heating Degree Days15.7 (Base 65)
Averaged from 106 records on February 13, 2013
WEATHER CONDITIONS BREAKOUT
WIND DIRECTION BREAKOUT
WEATHER BY HOUR - FEBRUARY 13, 2013
[ °C ]   °F
Local TimeTemperatureDewpointHumidityBarometerVisibilityWind DirectionWind SpeedGust SpeedPrecipitationEventsConditions
12:13 AM50.0 °F50.0 °F100 %29.82 in9.0 miNorth (350°)3.5 mphRainLight Rain
12:14 AM50.0 °F50.0 °F100 %29.82 in9.0 miNorth (360°)3.5 mphRainLight Rain
12:24 AM50.0 °F50.0 °F100 %29.81 in8.0 miCalm (360°)RainLight Rain
12:29 AM50.0 °F50.0 °F100 %29.80 in9.0 miVariable2.3 mphRainLight Rain
12:33 AM50.0 °F50.0 °F100 %29.81 in10.0 miCalmLight Drizzle
12:35 AM50.0 °F50.0 °F100 %29.80 in10.0 miCalmOvercast
12:45 AM50.0 °F50.0 °F100 %29.81 in10.0 miCalm (10°)Overcast
12:54 AM50.0 °F50.0 °F100 %29.80 in10.0 miNE (40°)2.3 mphOvercast
12:58 AM50.0 °F50.0 °F100 %29.81 in10.0 miENE (60°)3.5 mph0.02 inOvercast
1:03 AM50.0 °F50.0 °F100 %29.80 in10.0 miNorth (10°)2.3 mphOvercast
1:18 AM51.8 °F50.0 °F94 %29.79 in10.0 miEast (100°)2.3 mphOvercast
1:28 AM51.8 °F50.0 °F94 %29.79 in9.0 miCalm (360°)RainLight Rain
1:42 AM51.8 °F50.0 °F94 %29.80 in7.0 miWNW (300°)2.3 mphOvercast
1:44 AM51.8 °F50.0 °F94 %29.80 in7.0 miCalm (350°)RainLight Rain
1:58 AM51.3 °F51.1 °F99 %29.80 in9.0 miENE (60°)1.2 mph0.01 inRainLight Rain
1:59 AM51.8 °F51.8 °F100 %29.79 in10.0 miCalm (350°)Overcast
2:14 AM51.8 °F51.8 °F100 %29.78 in9.0 miESE (110°)1.2 mphOvercast
2:24 AM51.8 °F51.8 °F100 %29.78 in9.0 miCalmOvercast
2:29 AM51.8 °F51.8 °F100 %29.78 in10.0 miVariable2.3 mphOvercast
2:44 AM51.8 °F51.8 °F100 %29.78 in10.0 miCalm (360°)Overcast
2:58 AM51.4 °F51.3 °F99 %29.78 in10.0 miCalm (350°)0.01 inOvercast
3:03 AM51.8 °F51.8 °F100 %29.77 in10.0 miCalmOvercast
3:18 AM51.8 °F51.8 °F100 %29.77 in10.0 miNNW (330°)2.3 mphOvercast
3:23 AM51.8 °F51.8 °F100 %29.77 in10.0 miNW (320°)2.3 mphRainLight Rain
3:28 AM51.8 °F51.8 °F100 %29.77 in8.0 miNNW (330°)3.5 mphRainLight Rain
3:33 AM51.8 °F51.8 °F100 %29.77 in8.0 miNNW (330°)2.3 mphRainLight Rain
3:38 AM51.8 °F51.8 °F100 %29.77 in7.0 miNNW (330°)1.2 mphOvercast
3:50 AM51.8 °F51.8 °F100 %29.75 in8.0 miCalmRainLight Rain
3:55 AM51.8 °F51.8 °F100 %29.75 in6.0 miCalmLight Drizzle
3:58 AM51.6 °F51.4 °F99 %29.76 in6.0 miCalm0.00 inLight Drizzle
4:08 AM51.8 °F51.8 °F100 %29.74 in6.0 miSouth (180°)1.2 mphLight Drizzle
4:10 AM51.8 °F51.8 °F100 %29.74 in7.0 miCalmOvercast
4:20 AM51.8 °F51.8 °F100 %29.74 in10.0 miCalm (340°)Overcast
4:30 AM51.8 °F51.8 °F100 %29.73 in10.0 miCalmOvercast
4:40 AM51.8 °F51.8 °F100 %29.73 in10.0 miCalmOvercast
4:50 AM51.8 °F51.8 °F100 %29.74 in10.0 miCalm (350°)Overcast
4:55 AM51.8 °F51.8 °F100 %29.75 in8.0 miWest (270°)2.3 mphOvercast
4:58 AM51.8 °F51.6 °F99 %29.76 in8.0 miWest (260°)2.3 mph0.00 inOvercast
5:03 AM51.8 °F51.8 °F100 %29.75 in6.0 miCalmOvercast
5:13 AM51.8 °F51.8 °F100 %29.75 in4.0 miSSE (150°)1.2 mphOvercast
5:18 AM51.8 °F51.8 °F100 %29.75 in4.0 miCalm (20°)Overcast
5:28 AM51.8 °F51.8 °F100 %29.76 in3.0 miWNW (290°)2.3 mphOvercast
5:33 AM51.8 °F51.8 °F100 %29.76 in2.5 miNE (50°)1.2 mphOvercast
5:38 AM51.8 °F51.8 °F100 %29.76 in2.5 miCalm (320°)Overcast
5:48 AM51.8 °F51.8 °F100 %29.77 in3.0 miCalmOvercast
5:58 AM52.5 °F52.3 °F99 %29.78 in4.0 miSE (130°)1.2 mphOvercast
6:08 AM51.8 °F51.8 °F100 %29.78 in3.0 miSSE (150°)3.5 mphOvercast
6:13 AM53.6 °F51.8 °F94 %29.78 in2.5 miESE (120°)2.3 mphOvercast
6:33 AM53.6 °F51.8 °F94 %29.78 in2.5 miENE (70°)1.2 mphOvercast
6:38 AM53.6 °F51.8 °F94 %29.79 in3.0 miCalm (350°)Overcast
6:53 AM53.6 °F53.6 °F100 %29.78 in5.0 miVariable2.3 mphOvercast
6:58 AM53.6 °F53.4 °F99 %29.79 in8.0 miVariable3.5 mphOvercast
7:03 AM55.4 °F53.6 °F94 %29.79 in10.0 miVariable5.8 mphOvercast
7:08 AM55.4 °F55.4 °F100 %29.79 in10.0 miWest (280°)6.9 mphOvercast
7:13 AM55.4 °F55.4 °F100 %29.79 in10.0 miWest (270°)6.9 mphOvercast
7:28 AM55.4 °F55.4 °F100 %29.80 in10.0 miWest (270°)8.1 mphMostly Cloudy
7:33 AM55.4 °F55.4 °F100 %29.80 in10.0 miWest (270°)8.1 mphMostly Cloudy
7:38 AM55.4 °F55.4 °F100 %29.79 in10.0 miWest (270°)5.8 mphMostly Cloudy
7:58 AM55.4 °F54.5 °F97 %29.80 in10.0 miVariable2.3 mphScattered Clouds
8:08 AM55.4 °F53.6 °F94 %29.82 in10.0 miWest (280°)6.9 mphMostly Cloudy
8:18 AM55.4 °F53.6 °F94 %29.82 in10.0 miVariable5.8 mphMostly Cloudy
8:23 AM55.4 °F53.6 °F94 %29.82 in10.0 miWSW (250°)6.9 mphMostly Cloudy
8:28 AM55.4 °F53.6 °F94 %29.81 in10.0 miVariable4.6 mphScattered Clouds
8:58 AM56.3 °F53.2 °F89 %29.84 in10.0 miVariable4.6 mphClear
9:48 AM57.2 °F51.8 °F82 %29.86 in10.0 miWNW (290°)10.4 mphMostly Cloudy
9:58 AM56.8 °F52.0 °F84 %29.87 in10.0 miWest (270°)8.1 mphMostly Cloudy
10:03 AM57.2 °F51.8 °F82 %29.86 in10.0 miWest (280°)9.2 mphMostly Cloudy
10:58 AM56.1 °F47.7 °F73 %29.85 in10.0 miWest (260°)6.9 mph20.7 mphPartly Cloudy
11:58 AM56.1 °F48.0 °F74 %29.88 in10.0 miWest (270°)9.2 mph17.3 mphPartly Cloudy
12:11 PM55.4 °F48.2 °F77 %29.87 in10.0 miWNW (290°)13.8 mph19.6 mphMostly Cloudy
12:12 PM55.4 °F48.2 °F77 %29.87 in10.0 miWest (280°)15.0 mph19.6 mphRainLight Rain
12:20 PM55.4 °F48.2 °F77 %29.87 in10.0 miWest (280°)10.4 mph18.4 mphMostly Cloudy
12:29 PM55.4 °F48.2 °F77 %29.87 in10.0 miWNW (300°)15.0 mph18.4 mphRainLight Rain
12:39 PM55.4 °F48.2 °F77 %29.85 in10.0 miWNW (290°)13.8 mph19.6 mphRainLight Rain
12:58 PM55.0 °F47.1 °F75 %29.86 in10.0 miWNW (290°)9.2 mph21.9 mph0.00 inRainLight Rain
1:01 PM55.4 °F48.2 °F77 %29.86 in10.0 miWNW (290°)10.4 mph21.9 mphScattered Clouds
1:34 PM53.6 °F46.4 °F77 %29.85 in10.0 miWNW (290°)9.2 mphRainLight Rain
1:49 PM53.6 °F46.4 °F77 %29.85 in10.0 miWest (280°)9.2 mphRainRain
1:54 PM51.8 °F46.4 °F82 %29.84 in10.0 miWest (280°)6.9 mphRainLight Rain
1:58 PM52.5 °F46.9 °F81 %29.84 in10.0 miWest (270°)4.6 mph0.01 inRainLight Rain
2:38 PM50.0 °F48.2 °F94 %29.85 in9.0 miVariable3.5 mphRainLight Rain
2:58 PM50.0 °F48.2 °F94 %29.86 in10.0 miWNW (290°)11.5 mph0.07 inRainLight Rain
3:03 PM50.0 °F48.2 °F94 %29.86 in10.0 miWNW (290°)8.1 mphRainLight Rain
3:18 PM48.2 °F46.4 °F93 %29.88 in10.0 miWest (280°)11.5 mphRainLight Rain
3:38 PM48.2 °F44.6 °F87 %29.86 in10.0 miWNW (290°)10.4 mphMostly Cloudy
3:43 PM48.2 °F44.6 °F87 %29.86 in10.0 miWest (280°)10.4 mphScattered Clouds
3:58 PM48.7 °F45.7 °F89 %29.85 in10.0 miVariable5.8 mph0.00 inScattered Clouds
3:59 PM48.2 °F46.4 °F93 %29.87 in10.0 miWest (270°)9.2 mphRainLight Rain
4:12 PM48.2 °F44.6 °F87 %29.87 in10.0 miWest (260°)8.1 mphClear
4:27 PM48.2 °F46.4 °F93 %29.88 in10.0 miWest (260°)4.6 mphMostly Cloudy
4:58 PM48.7 °F45.5 °F89 %29.89 in10.0 miWest (280°)6.9 mph0.00 inMostly Cloudy
5:55 PM48.2 °F46.4 °F93 %29.89 in10.0 miWNW (290°)5.8 mphPartly Cloudy
6:16 PM48.2 °F46.4 °F93 %29.91 in10.0 miWest (280°)4.6 mphMostly Cloudy
6:26 PM48.2 °F46.4 °F93 %29.91 in10.0 miWNW (290°)5.8 mphScattered Clouds
6:31 PM48.2 °F46.4 °F93 %29.91 in10.0 miWNW (290°)4.6 mphMostly Cloudy
6:58 PM48.7 °F45.1 °F87 %29.93 in10.0 miWest (270°)3.5 mphMostly Cloudy
7:18 PM48.2 °F44.6 °F87 %29.92 in10.0 miWNW (300°)4.6 mphScattered Clouds
7:43 PM48.2 °F42.8 °F82 %29.93 in10.0 miWNW (290°)6.9 mphScattered Clouds
7:58 PM47.8 °F43.0 °F83 %29.95 in10.0 miWNW (290°)8.1 mphPartly Cloudy
8:33 PM48.2 °F42.8 °F82 %29.94 in10.0 miWNW (300°)9.2 mphMostly Cloudy
8:58 PM47.3 °F41.7 °F81 %29.96 in10.0 miNW (310°)8.1 mphScattered Clouds
9:38 PM46.4 °F41.0 °F81 %29.96 in10.0 miWNW (300°)8.1 mphMostly Cloudy
9:58 PM46.4 °F41.5 °F83 %29.97 in10.0 miNW (310°)8.1 mphMostly Cloudy
10:03 PM46.4 °F41.0 °F81 %29.97 in10.0 miNW (320°)10.4 mphScattered Clouds
10:58 PM43.5 °F39.0 °F84 %29.99 in10.0 miNW (320°)6.9 mphClear
11:58 PM41.4 °F37.9 °F88 %29.99 in10.0 miNW (310°)5.8 mphClear
Hourly data recorded from KLSF, located miles away from Fort Benning South, Georgia







STORIES FROM OUR PARTNERS